User: anonymous   Login
Location: Niverville
(49.6028°N, 97.0419°W)
Time: 14:13:44
(UTC-05:00)
Language:

BREEZE-M DEB (TANK) - Orbit

View from above orbital plane
View from above orbital plane
View from above satellite
View from above satellite

Ground track
Ground track

The orbit data is extracted from the following two-line orbital elements,

1 33374U 08044B   17141.65712807 +.00001103 +00000-0 +31966-3 0  9999
2 33374 049.4548 302.2352 5445633 068.6499 339.7177 04.87025786152737
Epoch (UTC): 21 May 2017 15:46:15
Eccentricity: 0.5445633
inclination: 49.4548°
perigee height: 317 km
apogee height: 16329 km
right ascension of ascending node: 302.2352°
argument of perigee: 68.6499°
revolutions per day: 4.87025786
mean anomaly at epoch: 339.7177°
orbit number at epoch: 15273

The dashed part of the orbit path shows where the satellite is in the earth's shadow,  

DLR